HODOYOSHI 4

Satellite information

Favourite Embed

Satellite Type and Status

PAYLOADIN ORBIT

Key statistics

Satellite HODOYOSHI 4 at a glance.

Uptime

4099

Days in orbit

Revolutions

≈ 14.9

Per day

Orbit

SSO

Sun Synchronous Orbit

Inclination

97.5

Latest

Satellite identification and parameters

Extended collection of information and parameters for HODOYOSHI 4.

Object identification

Identified? True

Debris? False

Object name: HODOYOSHI 4

International designator: 2014-033B

Object number (NORAD): 40011

Object ID (CCSDS): 40011

Country: JAPAN (JPN)

Current information (Y/N): Y

RCS size: MEDIUM

Orbital parameters

Period: 96.839 minutes

Inclination: 97.5496 deg

SMA: 6985.45 km

Apoapsis: 624.489 km

Periapsis: 590.141 km

RAAN: 84.6015 deg

Eccentricy: 0.00245855

Argument of periapsis: 157.3684 deg

Mean anomaly: 202.8622 deg

Mean motion: 14.87000693 rev/day

Mean motion (dot): 0.00001837 rev/day2

B* drag term: 0.00020977484 1/REarth

Two-line elements (TLE)

Creation date: Sept. 8, 2025, 3:16 a.m.

Reference frame: TEME

Reference center: EARTH

Epoch: Sept. 8, 2025, 12:04 a.m. UTC

TLE line 0: 0 HODOYOSHI 4

TLE line 1: 1 40011U 14033B 25251.00308502 .00001837 00000-0 20977-3 0 9997

TLE line 2: 2 40011 97.5496 84.6015 0024586 157.3684 202.8622 14.87000693606856

Live tracking on map

Real-time ground track for satellite HODOYOSHI 4.

In-orbit conjunctions

There are no conjunctions computed for HODOYOSHI 4, at the moment. Check back to stay up to date, as we update our databases every day.

Go to all conjunctions

Associated space launch

HODOYOSHI 4 was lifted into orbit during the mission ‘Dnepr 1 | Multipayload, 37 satellites.’, on board a Dnepr space rocket.

The launch took place on June 19, 2014, 7:11 p.m. from 370/13.

For more information about the launch, click the button.

Launch to space Dnepr 1 | Multipayload, 37 satellites.
Dnepr 1 | Multipayload, 37 satellites.

Agency: N/A

Status: Launch Successful

Launch date: June 19, 2014, 7:11 p.m. UTC

Rocket: Dnepr

Launch pad: 370/13

Location: Dombarovskiy, Russian Federation

...

Latest news about this satellite

There are no fresh news available about this satellite. Check back as we update our databases every day.


Newsletter sign-up

Weekly statistics, charts and insights to help you stay on top of the space industry.